| time (UTC) | temp C | wind direction | speed KPH | gust KPH | rain 1hr cm | rain 24hr cm | rain mn cm | humidity % | barometer mb |
| 20260506002502 | 27 | 239 | 3.2 | 8.0 | 0.03 | 0.03 | 0.03 | 80 | 1005.0 |
| 20260506002001 | 27 | 194 | 3.2 | 12.9 | 0.00 | 0.00 | 0.00 | 80 | 1004.8 |
| 20260506001502 | 27 | 185 | 4.8 | 14.5 | 0.00 | 0.00 | 0.00 | 79 | 1004.8 |
| 20260506001002 | 28 | 183 | 4.8 | 14.5 | 0.00 | 0.00 | 0.00 | 79 | 1004.7 |
| 20260506000501 | 28 | 174 | 4.8 | 14.5 | 0.00 | 0.00 | 0.00 | 76 | 1004.2 |
| 20260506000002 | 28 | 169 | 4.8 | 11.3 | 0.00 | 0.00 | 0.00 | 76 | 1004.2 |
| 20260505235501 | 28 | 173 | 6.4 | 17.7 | 0.00 | 0.00 | 0.00 | 76 | 1003.9 |
| 20260505235001 | 28 | 174 | 6.4 | 19.3 | 0.00 | 0.00 | 0.00 | 75 | 1003.8 |
| 20260505234502 | 28 | 186 | 8.0 | 19.3 | 0.00 | 0.00 | 0.00 | 75 | 1004.0 |
| 20260505233002 | 30 | 181 | 8.0 | 19.3 | 0.00 | 0.00 | 0.00 | 73 | 1004.2 |
| 20260505232501 | 30 | 178 | 6.4 | 19.3 | 0.00 | 0.00 | 0.00 | 72 | 1004.0 |
| 20260505231502 | 30 | 185 | 4.8 | 14.5 | 0.00 | 0.00 | 0.00 | 71 | 1004.1 |
| 20260505231001 | 31 | 181 | 6.4 | 14.5 | 0.00 | 0.00 | 0.00 | 70 | 1004.1 |
| 20260505230502 | 31 | 187 | 8.0 | 16.1 | 0.00 | 0.00 | 0.00 | 69 | 1003.9 |
| 20260505230002 | 31 | 193 | 6.4 | 16.1 | 0.00 | 0.00 | 0.00 | 69 | 1003.9 |
| 20260505225501 | 31 | 186 | 6.4 | 17.7 | 0.00 | 0.00 | 0.00 | 69 | 1003.7 |
| 20260505225002 | 31 | 173 | 6.4 | 17.7 | 0.00 | 0.00 | 0.00 | 69 | 1003.9 |
| 20260505224502 | 31 | 172 | 6.4 | 19.3 | 0.00 | 0.00 | 0.00 | 69 | 1003.9 |
| 20260505224002 | 31 | 171 | 8.0 | 19.3 | 0.00 | 0.00 | 0.00 | 69 | 1003.7 |
| 20260505222502 | 31 | 190 | 6.4 | 20.9 | 0.00 | 0.00 | 0.00 | 69 | 1003.8 |
| 20260505222002 | 31 | 184 | 6.4 | 20.9 | 0.00 | 0.00 | 0.00 | 69 | 1003.8 |
| 20260505221502 | 31 | 183 | 8.0 | 20.9 | 0.00 | 0.00 | 0.00 | 68 | 1003.8 |
| 20260505221002 | 31 | 178 | 8.0 | 19.3 | 0.00 | 0.00 | 0.00 | 68 | 1003.6 |
| 20260505220502 | 31 | 183 | 6.4 | 17.7 | 0.00 | 0.00 | 0.00 | 68 | 1003.6 |
| 20260505220002 | 32 | 195 | 6.4 | 19.3 | 0.00 | 0.00 | 0.00 | 67 | 1003.7 |
| 20260505215502 | 31 | 191 | 8.0 | 19.3 | 0.00 | 0.00 | 0.00 | 67 | 1003.7 |
| 20260505215001 | 32 | 192 | 6.4 | 16.1 | 0.00 | 0.00 | 0.00 | 66 | 1003.7 |
| 20260505214502 | 32 | 195 | 6.4 | 16.1 | 0.00 | 0.00 | 0.00 | 67 | 1003.7 |
| 20260505214002 | 31 | 190 | 6.4 | 16.1 | 0.00 | 0.00 | 0.00 | 68 | 1003.8 |
| 20260505213501 | 31 | 179 | 6.4 | 17.7 | 0.00 | 0.00 | 0.00 | 67 | 1003.8 |
| 20260505213002 | 31 | 178 | 8.0 | 17.7 | 0.00 | 0.00 | 0.00 | 67 | 1003.8 |
| 20260505212002 | 31 | 196 | 8.0 | 20.9 | 0.00 | 0.00 | 0.00 | 67 | 1004.0 |
| 20260505211502 | 31 | 190 | 6.4 | 17.7 | 0.00 | 0.00 | 0.00 | 66 | 1004.0 |
| 20260505210002 | 32 | 181 | 6.4 | 14.5 | 0.00 | 0.00 | 0.00 | 66 | 1004.1 |
| 20260505205502 | 32 | 195 | 6.4 | 14.5 | 0.00 | 0.00 | 0.00 | 66 | 1004.2 |
| 20260505205003 | 32 | 203 | 6.4 | 14.5 | 0.00 | 0.00 | 0.00 | 64 | 1004.3 |
| 20260505204502 | 32 | 198 | 6.4 | 14.5 | 0.00 | 0.00 | 0.00 | 65 | 1004.4 |
| 20260505204001 | 31 | 204 | 6.4 | 14.5 | 0.00 | 0.00 | 0.00 | 67 | 1004.4 |
| 20260505203502 | 31 | 207 | 4.8 | 14.5 | 0.00 | 0.00 | 0.00 | 66 | 1004.4 |
| 20260505203002 | 31 | 202 | 6.4 | 20.9 | 0.00 | 0.00 | 0.00 | 69 | 1004.5 |
| 20260505202502 | 31 | 197 | 8.0 | 20.9 | 0.00 | 0.00 | 0.00 | 67 | 1004.5 |
| 20260505201501 | 31 | 199 | 8.0 | 20.9 | 0.00 | 0.00 | 0.00 | 66 | 1004.6 |
| 20260505201002 | 31 | 194 | 6.4 | 20.9 | 0.00 | 0.00 | 0.00 | 67 | 1004.6 |
| 20260505200502 | 31 | 189 | 8.0 | 16.1 | 0.00 | 0.00 | 0.00 | 68 | 1004.6 |
| 20260505200002 | 31 | 189 | 8.0 | 20.9 | 0.00 | 0.00 | 0.00 | 69 | 1004.7 |
| 20260505195502 | 31 | 199 | 6.4 | 20.9 | 0.00 | 0.00 | 0.00 | 67 | 1004.7 |
| 20260505195001 | 31 | 206 | 6.4 | 16.1 | 0.00 | 0.00 | 0.00 | 68 | 1004.6 |
| 20260505194502 | 30 | 193 | 8.0 | 25.7 | 0.00 | 0.00 | 0.00 | 70 | 1004.7 |
| 20260505194002 | 30 | 198 | 8.0 | 25.7 | 0.00 | 0.00 | 0.00 | 69 | 1004.7 |
| 20260505193502 | 30 | 198 | 8.0 | 24.1 | 0.00 | 0.00 | 0.00 | 70 | 1004.7 |
| 20260505193002 | 30 | 190 | 9.7 | 24.1 | 0.00 | 0.00 | 0.00 | 70 | 1004.8 |
| 20260505191502 | 29 | 194 | 9.7 | 25.7 | 0.00 | 0.00 | 0.00 | 70 | 1004.9 |
| 20260505191002 | 29 | 192 | 9.7 | 25.7 | 0.00 | 0.00 | 0.00 | 71 | 1004.9 |
| 20260505190502 | 29 | 194 | 8.0 | 22.5 | 0.00 | 0.00 | 0.00 | 71 | 1004.9 |
| 20260505190003 | 29 | 191 | 6.4 | 25.7 | 0.00 | 0.00 | 0.00 | 73 | 1005.0 |
| 20260505185502 | 28 | 191 | 8.0 | 25.7 | 0.00 | 0.00 | 0.00 | 72 | 1004.9 |
| 20260505185002 | 28 | 194 | 8.0 | 22.5 | 0.00 | 0.00 | 0.00 | 72 | 1005.1 |
| 20260505184502 | 28 | 198 | 8.0 | 19.3 | 0.00 | 0.00 | 0.00 | 73 | 1005.1 |
| 20260505184002 | 28 | 198 | 8.0 | 19.3 | 0.00 | 0.00 | 0.00 | 72 | 1005.1 |
| 20260505183503 | 28 | 194 | 8.0 | 19.3 | 0.00 | 0.00 | 0.00 | 72 | 1005.2 |
| 20260505182502 | 28 | 186 | 6.4 | 16.1 | 0.00 | 0.00 | 0.00 | 73 | 1005.1 |
| 20260505182003 | 28 | 189 | 6.4 | 17.7 | 0.00 | 0.00 | 0.00 | 73 | 1005.2 |
| 20260505181502 | 28 | 189 | 8.0 | 20.9 | 0.00 | 0.00 | 0.00 | 73 | 1005.2 |
| 20260505181002 | 28 | 187 | 8.0 | 22.5 | 0.00 | 0.00 | 0.00 | 72 | 1005.2 |
| 20260505180002 | 28 | 198 | 8.0 | 27.4 | 0.00 | 0.00 | 0.00 | 70 | 1005.3 |
| 20260505175502 | 29 | 193 | 6.4 | 12.9 | 0.00 | 0.00 | 0.00 | 70 | 1005.3 |
| 20260505175002 | 29 | 191 | 6.4 | 20.9 | 0.00 | 0.00 | 0.00 | 71 | 1005.3 |
| 20260505174502 | 28 | 192 | 8.0 | 20.9 | 0.00 | 0.00 | 0.00 | 72 | 1005.4 |
| 20260505174002 | 28 | 198 | 8.0 | 20.9 | 0.00 | 0.00 | 0.00 | 72 | 1005.3 |
| 20260505173503 | 28 | 203 | 8.0 | 20.9 | 0.00 | 0.00 | 0.00 | 72 | 1005.2 |
| 20260505173003 | 28 | 200 | 6.4 | 19.3 | 0.00 | 0.00 | 0.00 | 72 | 1005.3 |
| 20260505172502 | 28 | 198 | 4.8 | 20.9 | 0.00 | 0.00 | 0.00 | 72 | 1005.2 |
| 20260505171003 | 27 | 195 | 8.0 | 19.3 | 0.00 | 0.00 | 0.00 | 73 | 1005.4 |
| 20260505170502 | 27 | 200 | 8.0 | 27.4 | 0.00 | 0.00 | 0.00 | 75 | 1005.5 |
| 20260505170002 | 27 | 201 | 8.0 | 27.4 | 0.00 | 0.00 | 0.00 | 75 | 1005.5 |
| 20260505165002 | 27 | 199 | 9.7 | 20.9 | 0.00 | 0.00 | 0.00 | 75 | 1005.4 |
| 20260505164503 | 27 | 197 | 8.0 | 19.3 | 0.00 | 0.00 | 0.00 | 75 | 1005.5 |
| 20260505164002 | 27 | 213 | 8.0 | 17.7 | 0.00 | 0.00 | 0.00 | 75 | 1005.8 |
| 20260505163502 | 27 | 208 | 8.0 | 19.3 | 0.00 | 0.00 | 0.00 | 75 | 1005.5 |
| 20260505163002 | 27 | 193 | 8.0 | 20.9 | 0.00 | 0.00 | 0.00 | 77 | 1005.3 |
| 20260505162503 | 26 | 187 | 9.7 | 24.1 | 0.00 | 0.00 | 0.00 | 76 | 1005.3 |
| 20260505161503 | 26 | 193 | 11.3 | 25.7 | 0.00 | 0.00 | 0.00 | 77 | 1005.2 |
| 20260505161002 | 26 | 190 | 9.7 | 25.7 | 0.00 | 0.00 | 0.00 | 77 | 1005.2 |
| 20260505160502 | 26 | 192 | 9.7 | 22.5 | 0.00 | 0.00 | 0.00 | 78 | 1005.2 |
| 20260505153003 | 25 | 207 | 8.0 | 20.9 | 0.00 | 0.00 | 0.00 | 80 | 1005.4 |
| 20260505152502 | 25 | 200 | 6.4 | 17.7 | 0.00 | 0.00 | 0.00 | 80 | 1005.5 |
| 20260505152003 | 25 | 194 | 9.7 | 27.4 | 0.00 | 0.00 | 0.00 | 81 | 1005.5 |
| 20260505151503 | 24 | 197 | 11.3 | 27.4 | 0.00 | 0.00 | 0.00 | 82 | 1005.4 |
| 20260505151002 | 24 | 194 | 11.3 | 24.1 | 0.00 | 0.00 | 0.00 | 82 | 1005.3 |
| 20260505150503 | 23 | 191 | 9.7 | 24.1 | 0.00 | 0.00 | 0.00 | 82 | 1005.3 |
| 20260505125003 | 22 | 193 | 6.4 | 22.5 | 0.00 | 0.00 | 0.00 | 87 | 1005.1 |
| 20260505124503 | 22 | 199 | 4.8 | 14.5 | 0.00 | 0.00 | 0.00 | 87 | 1004.9 |
| 20260505124003 | 22 | 196 | 6.4 | 17.7 | 0.00 | 0.00 | 0.00 | 87 | 1004.7 |
| 20260505123503 | 22 | 191 | 6.4 | 17.7 | 0.00 | 0.00 | 0.00 | 87 | 1004.7 |
| 20260505123003 | 22 | 195 | 6.4 | 17.7 | 0.00 | 0.00 | 0.00 | 87 | 1004.6 |
| 20260505122502 | 22 | 199 | 6.4 | 14.5 | 0.00 | 0.00 | 0.00 | 87 | 1004.7 |
| 20260505122003 | 22 | 198 | 6.4 | 17.7 | 0.00 | 0.00 | 0.00 | 87 | 1004.6 |
| 20260505121503 | 22 | 192 | 8.0 | 20.9 | 0.00 | 0.00 | 0.00 | 87 | 1004.6 |
| 20260505121003 | 22 | 190 | 8.0 | 20.9 | 0.00 | 0.00 | 0.00 | 87 | 1004.6 |
| 20260505120503 | 22 | 192 | 6.4 | 19.3 | 0.00 | 0.00 | 0.00 | 87 | 1004.5 |
| 20260505120004 | 22 | 186 | 8.0 | 19.3 | 0.00 | 0.00 | 0.00 | 87 | 1004.4 |
| 20260505115503 | 22 | 194 | 8.0 | 19.3 | 0.00 | 0.00 | 0.00 | 87 | 1004.4 |
| 20260505115002 | 22 | 200 | 9.7 | 20.9 | 0.00 | 0.00 | 0.00 | 87 | 1004.4 |
| 20260505114503 | 21 | 194 | 8.0 | 20.9 | 0.00 | 0.00 | 0.00 | 87 | 1004.4 |
| 20260505114003 | 21 | 188 | 8.0 | 14.5 | 0.00 | 0.00 | 0.00 | 87 | 1004.3 |
| 20260505112503 | 22 | 183 | 8.0 | 20.9 | 0.00 | 0.00 | 0.00 | 87 | 1004.3 |
| 20260505112003 | 22 | 186 | 8.0 | 19.3 | 0.00 | 0.00 | 0.00 | 87 | 1004.2 |
| 20260505111503 | 21 | 193 | 8.0 | 19.3 | 0.00 | 0.00 | 0.00 | 87 | 1004.3 |
| 20260505111003 | 21 | 198 | 8.0 | 20.9 | 0.00 | 0.00 | 0.00 | 87 | 1004.3 |
| 20260505102003 | 22 | 187 | 8.0 | 22.5 | 0.00 | 0.00 | 0.00 | 86 | 1004.4 |
| 20260505100503 | 22 | 187 | 9.7 | 19.3 | 0.00 | 0.00 | 0.00 | 86 | 1004.4 |
| 20260505100003 | 22 | 183 | 8.0 | 20.9 | 0.00 | 0.00 | 0.00 | 86 | 1004.5 |
| 20260505094503 | 22 | 185 | 9.7 | 20.9 | 0.00 | 0.00 | 0.00 | 86 | 1004.7 |
| 20260505094003 | 22 | 191 | 9.7 | 22.5 | 0.00 | 0.00 | 0.00 | 86 | 1004.7 |
| 20260505093502 | 22 | 192 | 8.0 | 22.5 | 0.00 | 0.00 | 0.00 | 86 | 1004.7 |
| 20260505093004 | 22 | 190 | 8.0 | 22.5 | 0.00 | 0.00 | 0.00 | 86 | 1004.8 |
| 20260505092503 | 22 | 188 | 8.0 | 22.5 | 0.00 | 0.00 | 0.00 | 86 | 1004.8 |
| 20260505092003 | 22 | 192 | 9.7 | 20.9 | 0.00 | 0.00 | 0.00 | 86 | 1004.7 |
| 20260505091503 | 22 | 194 | 11.3 | 27.4 | 0.00 | 0.00 | 0.00 | 86 | 1004.7 |
| 20260505091003 | 22 | 191 | 9.7 | 27.4 | 0.00 | 0.00 | 0.00 | 86 | 1004.8 |
| 20260505090503 | 22 | 195 | 11.3 | 25.7 | 0.00 | 0.00 | 0.00 | 86 | 1004.7 |
| 20260505090003 | 22 | 197 | 11.3 | 24.1 | 0.00 | 0.00 | 0.00 | 86 | 1004.6 |
| 20260505085503 | 22 | 194 | 9.7 | 24.1 | 0.00 | 0.00 | 0.00 | 86 | 1004.6 |
| 20260505085003 | 22 | 194 | 11.3 | 24.1 | 0.00 | 0.00 | 0.00 | 86 | 1004.5 |
| 20260505084503 | 22 | 196 | 9.7 | 24.1 | 0.00 | 0.00 | 0.00 | 86 | 1004.6 |
| 20260505084003 | 22 | 195 | 11.3 | 27.4 | 0.00 | 0.00 | 0.00 | 86 | 1004.6 |
| 20260505083503 | 22 | 193 | 11.3 | 29.0 | 0.00 | 0.00 | 0.00 | 86 | 1004.6 |
| 20260505083003 | 22 | 198 | 9.7 | 29.0 | 0.00 | 0.00 | 0.00 | 86 | 1004.7 |
| 20260505082003 | 21 | 189 | 9.7 | 27.4 | 0.00 | 0.00 | 0.00 | 86 | 1004.7 |
| 20260505081504 | 21 | 190 | 11.3 | 27.4 | 0.00 | 0.00 | 0.00 | 86 | 1004.7 |
| 20260505080503 | 22 | 188 | 9.7 | 30.6 | 0.00 | 0.00 | 0.00 | 86 | 1004.7 |
| 20260505075503 | 22 | 192 | 11.3 | 30.6 | 0.00 | 0.00 | 0.00 | 86 | 1005.1 |
| 20260505075003 | 22 | 194 | 9.7 | 22.5 | 0.00 | 0.00 | 0.00 | 86 | 1005.1 |
| 20260505074504 | 22 | 196 | 9.7 | 24.1 | 0.00 | 0.00 | 0.00 | 86 | 1005.2 |
| 20260505074003 | 22 | 196 | 11.3 | 27.4 | 0.00 | 0.00 | 0.00 | 86 | 1005.3 |
| 20260505073504 | 22 | 193 | 11.3 | 27.4 | 0.00 | 0.00 | 0.00 | 86 | 1005.5 |
| 20260505073003 | 22 | 191 | 9.7 | 29.0 | 0.00 | 0.00 | 0.00 | 86 | 1005.5 |
| 20260505072503 | 22 | 189 | 9.7 | 29.0 | 0.00 | 0.00 | 0.00 | 85 | 1005.6 |
| 20260505072003 | 22 | 189 | 8.0 | 27.4 | 0.00 | 0.00 | 0.00 | 85 | 1005.6 |
| 20260505071503 | 22 | 190 | 9.7 | 27.4 | 0.00 | 0.00 | 0.00 | 85 | 1005.8 |
| 20260505070503 | 22 | 192 | 9.7 | 37.0 | 0.00 | 0.00 | 0.00 | 85 | 1005.7 |
| 20260505070003 | 22 | 189 | 11.3 | 37.0 | 0.00 | 0.00 | 0.00 | 84 | 1005.8 |
| 20260505065503 | 22 | 189 | 9.7 | 29.0 | 0.00 | 0.00 | 0.00 | 84 | 1005.8 |
| 20260505065003 | 22 | 192 | 9.7 | 25.7 | 0.00 | 0.00 | 0.00 | 84 | 1005.9 |
| 20260505064503 | 22 | 185 | 8.0 | 25.7 | 0.00 | 0.00 | 0.00 | 84 | 1005.9 |
| 20260505064004 | 22 | 178 | 8.0 | 19.3 | 0.00 | 0.00 | 0.00 | 84 | 1006.0 |
| 20260505063503 | 22 | 183 | 8.0 | 19.3 | 0.00 | 0.00 | 0.00 | 84 | 1005.9 |
| 20260505063003 | 22 | 186 | 8.0 | 20.9 | 0.00 | 0.00 | 0.00 | 84 | 1006.1 |
| 20260505062504 | 22 | 187 | 8.0 | 20.9 | 0.00 | 0.00 | 0.00 | 84 | 1005.9 |
| 20260505062003 | 22 | 188 | 6.4 | 19.3 | 0.00 | 0.00 | 0.00 | 83 | 1006.0 |
| 20260505060503 | 22 | 185 | 8.0 | 24.1 | 0.00 | 0.00 | 0.00 | 83 | 1006.2 |
| 20260505060003 | 22 | 189 | 8.0 | 17.7 | 0.00 | 0.00 | 0.00 | 83 | 1006.2 |
| 20260505055504 | 22 | 190 | 8.0 | 17.7 | 0.00 | 0.00 | 0.00 | 82 | 1006.1 |
| 20260505055003 | 22 | 187 | 6.4 | 22.5 | 0.00 | 0.00 | 0.00 | 82 | 1006.2 |
| 20260505054504 | 22 | 186 | 8.0 | 22.5 | 0.00 | 0.00 | 0.00 | 82 | 1006.2 |
| 20260505054003 | 22 | 182 | 8.0 | 22.5 | 0.00 | 0.00 | 0.00 | 82 | 1006.3 |
| 20260505053503 | 22 | 182 | 8.0 | 22.5 | 0.00 | 0.00 | 0.00 | 82 | 1006.3 |
| 20260505053004 | 22 | 181 | 8.0 | 19.3 | 0.00 | 0.00 | 0.00 | 81 | 1006.3 |
| 20260505051504 | 22 | 181 | 6.4 | 19.3 | 0.00 | 0.00 | 0.00 | 81 | 1006.6 |
| 20260505050504 | 22 | 181 | 6.4 | 19.3 | 0.00 | 0.00 | 0.00 | 81 | 1006.5 |
| 20260505041501 | 22 | 171 | 4.8 | 16.1 | 0.00 | 0.00 | 0.00 | 79 | 1006.8 |
| 20260505041002 | 22 | 171 | 4.8 | 11.3 | 0.00 | 0.00 | 0.00 | 79 | 1006.8 |
| 20260505040501 | 22 | 171 | 4.8 | 11.3 | 0.00 | 0.00 | 0.00 | 79 | 1006.9 |
| 20260505040002 | 22 | 173 | 4.8 | 12.9 | 0.00 | 0.00 | 0.00 | 79 | 1006.8 |
| 20260505035501 | 22 | 177 | 4.8 | 12.9 | 0.00 | 0.00 | 0.00 | 78 | 1006.8 |
| 20260505035001 | 22 | 182 | 4.8 | 12.9 | 0.00 | 0.00 | 0.00 | 78 | 1006.6 |
| 20260505034502 | 22 | 175 | 4.8 | 12.9 | 0.00 | 0.00 | 0.00 | 78 | 1006.5 |
| 20260505033001 | 22 | 166 | 4.8 | 11.3 | 0.00 | 0.00 | 0.00 | 77 | 1006.6 |
| 20260505032502 | 22 | 170 | 4.8 | 11.3 | 0.00 | 0.00 | 0.00 | 77 | 1006.6 |
| 20260505032001 | 23 | 181 | 4.8 | 12.9 | 0.00 | 0.00 | 0.00 | 77 | 1006.8 |
| 20260505025501 | 23 | 183 | 3.2 | 12.9 | 0.00 | 0.00 | 0.00 | 76 | 1006.9 |
| 20260505025002 | 23 | 184 | 3.2 | 11.3 | 0.00 | 0.00 | 0.00 | 76 | 1006.8 |
| 20260505024502 | 23 | 187 | 1.6 | 8.0 | 0.00 | 0.00 | 0.00 | 76 | 1006.9 |
| 20260505024001 | 23 | 181 | 1.6 | 6.4 | 0.00 | 0.00 | 0.00 | 75 | 1006.7 |
| 20260505023001 | 23 | 171 | 3.2 | 12.9 | 0.00 | 0.00 | 0.00 | 75 | 1006.4 |
| 20260505022502 | 23 | 169 | 4.8 | 12.9 | 0.00 | 0.00 | 0.00 | 75 | 1006.5 |
| 20260505022001 | 23 | 167 | 4.8 | 14.5 | 0.00 | 0.00 | 0.00 | 74 | 1006.4 |
| 20260505021501 | 23 | 182 | 6.4 | 14.5 | 0.00 | 0.00 | 0.00 | 74 | 1006.4 |
| 20260505021001 | 23 | 188 | 4.8 | 11.3 | 0.00 | 0.00 | 0.00 | 74 | 1006.3 |
| 20260505020502 | 23 | 181 | 4.8 | 12.9 | 0.00 | 0.00 | 0.00 | 74 | 1006.4 |
| 20260505020002 | 23 | 183 | 4.8 | 12.9 | 0.00 | 0.00 | 0.00 | 73 | 1006.4 |
| 20260505015501 | 23 | 179 | 4.8 | 14.5 | 0.00 | 0.00 | 0.00 | 73 | 1006.5 |
| 20260505015002 | 24 | 177 | 4.8 | 14.5 | 0.00 | 0.00 | 0.00 | 73 | 1006.5 |
| 20260505014502 | 24 | 184 | 6.4 | 14.5 | 0.00 | 0.00 | 0.00 | 73 | 1006.5 |
| 20260505014001 | 24 | 187 | 6.4 | 19.3 | 0.00 | 0.00 | 0.00 | 72 | 1006.4 |
| 20260505013502 | 24 | 187 | 6.4 | 20.9 | 0.00 | 0.00 | 0.00 | 72 | 1006.4 |
| 20260505013002 | 24 | 185 | 4.8 | 20.9 | 0.00 | 0.00 | 0.00 | 72 | 1006.5 |
| 20260505012501 | 24 | 175 | 6.4 | 12.9 | 0.00 | 0.00 | 0.00 | 72 | 1006.5 |
| 20260505012002 | 24 | 183 | 6.4 | 17.7 | 0.00 | 0.00 | 0.00 | 71 | 1006.4 |
| 20260505011501 | 24 | 186 | 6.4 | 17.7 | 0.00 | 0.00 | 0.00 | 71 | 1006.4 |
| 20260505010502 | 25 | 179 | 4.8 | 12.9 | 0.00 | 0.00 | 0.00 | 71 | 1006.4 |
| 20260505005502 | 25 | 190 | 6.4 | 16.1 | 0.00 | 0.00 | 0.00 | 70 | 1006.4 |
| 20260505005001 | 25 | 185 | 6.4 | 16.1 | 0.00 | 0.00 | 0.00 | 70 | 1006.4 |
| 20260505004502 | 25 | 188 | 8.0 | 16.1 | 0.00 | 0.00 | 0.00 | 69 | 1006.6 |
| 20260505004001 | 25 | 185 | 6.4 | 20.9 | 0.00 | 0.00 | 0.00 | 69 | 1006.5 |
| 20260505003001 | 26 | 187 | 8.0 | 22.5 | 0.00 | 0.00 | 0.00 | 67 | 1006.3 |